FENGYUN 1C DEB

Satellite information

Favourite Embed

Satellite Type and Status

DEBRISIN ORBIT

Key statistics

Satellite FENGYUN 1C DEB at a glance.

Uptime

9715

Days in orbit

Revolutions

≈ 14.4

Per day

Orbit

SSO

Sun Synchronous Orbit

Inclination

98.3

Latest

Satellite identification and parameters

Extended collection of information and parameters for FENGYUN 1C DEB.

Object identification

Identified? True

Debris? True

Object name: FENGYUN 1C DEB

International designator: 1999-025DBX

Object number (NORAD): 32459

Object ID (CCSDS): 32459

Country: PEOPLES REPUBLIC OF CHINA (PRC)

Current information (Y/N): Y

RCS size: SMALL

Orbital parameters

Period: 99.805 minutes

Inclination: 98.3033 deg

SMA: 7127.371 km

Apoapsis: 901.223 km

Periapsis: 597.249 km

RAAN: 1.0194 deg

Eccentricy: 0.02132441

Argument of periapsis: 186.1919 deg

Mean anomaly: 173.6629 deg

Mean motion: 14.42808602 rev/day

Mean motion (dot): 0.00003625 rev/day2

B* drag term: 0.00083717666 1/REarth

Two-line elements (TLE)

Creation date: Dec. 13, 2025, 4:32 a.m.

Reference frame: TEME

Reference center: EARTH

Epoch: Dec. 12, 2025, 6:57 p.m. UTC

TLE line 0: 0 FENGYUN 1C DEB

TLE line 1: 1 32459U 99025DBX 25346.79015718 .00003625 00000-0 83718-3 0 9992

TLE line 2: 2 32459 98.3033 1.0194 0213244 186.1919 173.6629 14.42808602945510

Live tracking on map

Real-time ground track for satellite FENGYUN 1C DEB.

In-orbit conjunctions

A list of the most updated potential collisions computed for object FENGYUN 1C DEB.

Target Orbit TCA Probability of collision Miss distance Type
COSMOS 2251 DEB LEO 2025-03-06 12:34:01 0.0002497181 97.0 (m) DEBRIS
COSMOS 1937 LEO 2024-06-21 22:17:00 0.01087537 14.0 (m) PAYLOAD

Associated space launch

Chinese polar orbiting meteorological satellite

FENGYUN 1C DEB was lifted into orbit during the mission ‘Long March 4B | Feng Yun 1C’, on board a Long March 4B space rocket.

The launch took place on May 10, 1999, 1:33 a.m. from Launch Complex 7.

For more information about the launch, click the button.

Launch to space Long March 4B | Feng Yun 1C
Long March 4B | Feng Yun 1C

Agency: N/A

Status: Launch Successful

Launch date: May 10, 1999, 1:33 a.m. UTC

Rocket: Long March 4B

Launch pad: Launch Complex 7

Location: Taiyuan Satellite Launch Center, People's Republic of China

...

Latest news about this satellite

There are no fresh news available about this satellite. Check back as we update our databases every day.


Newsletter sign-up

Weekly statistics, charts and insights to help you stay on top of the space industry.